STARLINK-33995 (63706 NORAD) Tracking and Keplerian Element Data

This shows tracking and keplerian element data for the satellite.

Feedback or suggestion? Click here.




ElementValue
Catalog63706
NameSTARLINK-33995
Epoch Orbit3698
Epoch Day353.92925653
Epoch Year2025
RAAN230.3397
Inclination53.1598
Eccentricity0.0001835
Argument of Perigee88.4267
Mean Anonmoly271.6944
Mean Motion15.30206951
Decay Rate0.0001306
L11 63706U 25087K 25353.92925653 .00013060 00000+0 45219-3 0 9996
L22 63706 53.1598 230.3397 0001835 88.4267 271.6944 15.30206951 36985



Live tracking and technical data element details for STARLINK-33995 (NORAD 63706). STARLINK-33995 can be tracked NOW for your location showing map with azimuth and elevation plus other details from your city location.







IsCatalogInMostPopularTable: catalog: 63706, numindb: 2
Update: records affected: 1



GetName: 63706 STARLINK-33995

Hit Count: updated at: Sun, 08 Feb 2026 07:53:40 GMT